TimeCDT,TemperatureF,Dew PointF,Humidity,Sea Level PressureIn,VisibilityMPH,Wind Direction,Wind SpeedMPH,Gust SpeedMPH,PrecipitationIn,Events,Conditions,WindDirDegrees,DateUTC
12:15 AM,64.4,56.1,74,29.77,10.0,NNE,5.8,-,N/A,,Overcast,20,2013-06-30 05:15:00
12:35 AM,64.4,56.3,75,29.77,10.0,North,4.6,-,N/A,,Overcast,360,2013-06-30 05:35:00
12:55 AM,64.4,56.3,75,29.78,10.0,North,6.9,-,N/A,,Overcast,10,2013-06-30 05:55:00
1:15 AM,64.0,56.5,76,29.78,10.0,North,8.1,-,N/A,,Overcast,10,2013-06-30 06:15:00
1:35 AM,63.9,56.7,77,29.78,10.0,North,5.8,-,N/A,,Overcast,10,2013-06-30 06:35:00
1:55 AM,63.7,56.8,78,29.78,10.0,North,5.8,-,N/A,,Overcast,360,2013-06-30 06:55:00
2:15 AM,63.5,57.2,80,29.78,10.0,North,6.9,-,N/A,,Overcast,360,2013-06-30 07:15:00
2:35 AM,63.5,57.2,80,29.79,10.0,North,5.8,-,N/A,,Overcast,360,2013-06-30 07:35:00
2:55 AM,63.0,57.4,82,29.79,10.0,North,5.8,-,N/A,,Overcast,360,2013-06-30 07:55:00
3:15 AM,63.1,57.7,83,29.79,10.0,North,4.6,-,N/A,,Overcast,360,2013-06-30 08:15:00
3:35 AM,63.5,58.1,83,29.79,10.0,North,6.9,-,N/A,,Overcast,10,2013-06-30 08:35:00
3:55 AM,63.5,57.9,82,29.79,10.0,NNE,6.9,-,N/A,,Mostly Cloudy,20,2013-06-30 08:55:00
4:15 AM,63.0,57.7,83,29.80,10.0,North,5.8,-,N/A,,Scattered Clouds,10,2013-06-30 09:15:00
4:35 AM,62.4,57.7,85,29.80,10.0,North,6.9,-,N/A,,Scattered Clouds,10,2013-06-30 09:35:00
4:55 AM,62.6,58.1,85,29.81,10.0,North,8.1,-,N/A,,Scattered Clouds,10,2013-06-30 09:55:00
5:15 AM,62.6,58.1,85,29.81,10.0,North,6.9,-,N/A,,Scattered Clouds,10,2013-06-30 10:15:00
5:35 AM,62.6,57.7,84,29.83,10.0,NNE,8.1,-,N/A,,Mostly Cloudy,20,2013-06-30 10:35:00
5:55 AM,62.6,57.7,84,29.83,10.0,North,10.4,-,N/A,,Mostly Cloudy,10,2013-06-30 10:55:00
6:15 AM,62.6,57.7,84,29.84,10.0,Calm,Calm,-,N/A,,Mostly Cloudy,0,2013-06-30 11:15:00
6:35 AM,62.8,57.6,83,29.84,10.0,Calm,Calm,-,N/A,,Mostly Cloudy,0,2013-06-30 11:35:00
6:55 AM,63.0,57.9,84,29.84,10.0,North,3.5,-,N/A,,Overcast,10,2013-06-30 11:55:00
7:15 AM,63.5,57.9,82,29.85,10.0,Calm,Calm,-,N/A,,Overcast,0,2013-06-30 12:15:00
7:35 AM,63.9,58.1,81,29.86,10.0,Calm,Calm,-,N/A,,Overcast,0,2013-06-30 12:35:00
7:55 AM,64.8,58.6,81,29.87,10.0,NE,4.6,-,N/A,,Mostly Cloudy,40,2013-06-30 12:55:00
8:15 AM,65.7,58.8,79,29.87,10.0,NE,6.9,-,N/A,,Mostly Cloudy,40,2013-06-30 13:15:00
8:35 AM,66.7,58.5,75,29.87,10.0,NNE,8.1,-,N/A,,Scattered Clouds,30,2013-06-30 13:35:00
8:55 AM,68.2,59.2,73,29.88,10.0,North,9.2,-,N/A,,Scattered Clouds,10,2013-06-30 13:55:00
9:15 AM,69.1,59.2,71,29.88,10.0,NNE,11.5,16.1,N/A,,Scattered Clouds,30,2013-06-30 14:15:00
9:35 AM,70.0,59.4,69,29.88,10.0,NE,12.7,18.4,N/A,,Clear,50,2013-06-30 14:35:00
9:55 AM,71.2,59.0,65,29.89,10.0,NE,13.8,17.3,N/A,,Clear,50,2013-06-30 14:55:00
10:15 AM,70.7,58.3,65,29.89,10.0,NE,11.5,16.1,N/A,,Scattered Clouds,40,2013-06-30 15:15:00
10:35 AM,71.6,59.4,65,29.89,10.0,NNE,9.2,-,N/A,,Clear,30,2013-06-30 15:35:00
10:55 AM,71.8,59.0,64,29.90,10.0,NNE,13.8,18.4,N/A,,Clear,30,2013-06-30 15:55:00
11:15 AM,73.6,58.6,59,29.90,10.0,NE,13.8,24.2,N/A,,Clear,50,2013-06-30 16:15:00
11:35 AM,75.0,59.2,58,29.90,10.0,NE,10.4,17.3,N/A,,Clear,40,2013-06-30 16:35:00
11:55 AM,74.1,58.6,58,29.90,10.0,NNE,12.7,17.3,N/A,,Scattered Clouds,30,2013-06-30 16:55:00
12:15 PM,75.2,58.5,56,29.90,10.0,NE,12.7,16.1,N/A,,Clear,40,2013-06-30 17:15:00
12:35 PM,75.9,58.8,55,29.90,10.0,NNE,12.7,17.3,N/A,,Scattered Clouds,30,2013-06-30 17:35:00
12:55 PM,76.5,58.1,53,29.90,10.0,NNE,9.2,19.6,N/A,,Clear,30,2013-06-30 17:55:00
1:15 PM,77.0,57.9,52,29.90,10.0,NNE,15.0,19.6,N/A,,Clear,20,2013-06-30 18:15:00
1:35 PM,77.9,56.8,48,29.90,10.0,NE,12.7,18.4,N/A,,Clear,50,2013-06-30 18:35:00
1:55 PM,77.9,55.6,46,29.90,10.0,NE,11.5,19.6,N/A,,Clear,40,2013-06-30 18:55:00
2:15 PM,79.0,56.1,45,29.90,10.0,NNE,15.0,19.6,N/A,,Clear,20,2013-06-30 19:15:00
2:35 PM,78.8,56.3,46,29.90,10.0,NNE,13.8,18.4,N/A,,Clear,30,2013-06-30 19:35:00
2:55 PM,78.1,55.0,45,29.90,10.0,ENE,12.7,19.6,N/A,,Clear,60,2013-06-30 19:55:00
3:15 PM,78.3,54.9,44,29.90,10.0,NE,15.0,18.4,N/A,,Clear,50,2013-06-30 20:15:00
3:35 PM,78.1,54.1,43,29.91,10.0,NE,16.1,19.6,N/A,,Clear,40,2013-06-30 20:35:00
3:55 PM,77.4,52.2,41,29.91,10.0,NE,12.7,20.7,N/A,,Clear,50,2013-06-30 20:55:00
4:15 PM,77.0,50.4,39,29.91,10.0,NNE,12.7,23.0,N/A,,Clear,30,2013-06-30 21:15:00
4:35 PM,76.8,52.2,42,29.92,10.0,NNE,16.1,24.2,N/A,,Clear,30,2013-06-30 21:35:00
4:55 PM,75.7,48.9,39,29.92,10.0,NNE,20.7,26.5,N/A,,Clear,30,2013-06-30 21:55:00
5:15 PM,75.2,46.4,36,29.93,10.0,NE,17.3,26.5,N/A,,Clear,40,2013-06-30 22:15:00
5:35 PM,74.7,44.6,34,29.94,10.0,NNE,20.7,27.6,N/A,,Clear,30,2013-06-30 22:35:00
5:55 PM,74.5,45.0,35,29.94,10.0,NE,16.1,23.0,N/A,,Scattered Clouds,40,2013-06-30 22:55:00
6:15 PM,73.9,43.2,33,29.95,10.0,NE,15.0,27.6,N/A,,Scattered Clouds,40,2013-06-30 23:15:00
6:35 PM,73.6,42.8,33,29.95,10.0,NNE,16.1,25.3,N/A,,Scattered Clouds,20,2013-06-30 23:35:00
6:55 PM,72.3,40.6,32,29.95,10.0,NNE,15.0,24.2,N/A,,Clear,30,2013-06-30 23:55:00
7:15 PM,71.2,39.0,31,29.95,10.0,NNE,16.1,25.3,N/A,,Clear,30,2013-07-01 00:15:00
7:35 PM,70.5,37.0,29,29.96,10.0,NE,15.0,21.9,N/A,,Clear,40,2013-07-01 00:35:00
7:55 PM,69.4,36.5,30,29.96,10.0,NNE,5.8,18.4,N/A,,Clear,30,2013-07-01 00:55:00
8:15 PM,68.9,36.7,31,29.96,10.0,NNE,5.8,-,N/A,,Clear,30,2013-07-01 01:15:00
8:35 PM,67.3,37.2,33,29.97,10.0,NE,5.8,-,N/A,,Scattered Clouds,40,2013-07-01 01:35:00
8:55 PM,68.0,36.1,31,29.97,10.0,North,8.1,-,N/A,,Mostly Cloudy,10,2013-07-01 01:55:00
9:15 PM,67.1,36.0,32,29.98,10.0,NNE,5.8,-,N/A,,Scattered Clouds,20,2013-07-01 02:15:00
9:35 PM,66.2,36.5,33,29.98,10.0,NNE,6.9,-,N/A,,Scattered Clouds,20,2013-07-01 02:35:00
9:55 PM,66.2,37.8,35,29.99,10.0,NNE,8.1,-,N/A,,Scattered Clouds,20,2013-07-01 02:55:00
10:15 PM,65.3,39.7,39,29.99,10.0,NNE,5.8,-,N/A,,Scattered Clouds,20,2013-07-01 03:15:00
10:35 PM,65.3,40.3,40,29.99,10.0,NNE,5.8,-,N/A,,Mostly Cloudy,30,2013-07-01 03:35:00
10:55 PM,65.5,41.4,41,29.99,10.0,NNE,5.8,-,N/A,,Overcast,20,2013-07-01 03:55:00
11:15 PM,64.9,42.6,44,29.99,10.0,North,5.8,-,N/A,,Overcast,10,2013-07-01 04:15:00
11:35 PM,65.3,43.3,45,29.99,10.0,North,6.9,-,N/A,,Overcast,360,2013-07-01 04:35:00
11:55 PM,64.9,44.2,47,29.99,10.0,North,6.9,-,N/A,,Mostly Cloudy,10,2013-07-01 04:55:00